This is the latest recevied weather packets stored in our database for station/object EA6AMR-10. If no packets are shown the sender has not sent any weather packets the latest 10 day(s).
| Time | Temp. | Humidity | Pressure | Rain* | Wind** | Luminosity | Snow |
|---|---|---|---|---|---|---|---|
| 1777614273 | 17.78° C | 54% | 1018.7 hPa | - | - | - | - |
| 1777613373 | 17.22° C | 54% | 1018.6 hPa | - | - | - | - |
| 1777612472 | 16.67° C | 54% | 1018.3 hPa | - | - | - | - |
| 1777611572 | 16.67° C | 55% | 1018.2 hPa | - | - | - | - |
| 1777610672 | 16.67° C | 55% | 1018 hPa | - | - | - | - |
| 1777609772 | 17.22° C | 55% | 1018 hPa | - | - | - | - |
| 1777608872 | 17.22° C | 55% | 1018.1 hPa | - | - | - | - |
| 1777607971 | 17.22° C | 55% | 1018 hPa | - | - | - | - |
| 1777607071 | 17.22° C | 55% | 1018 hPa | - | - | - | - |
| 1777606171 | 17.78° C | 55% | 1018 hPa | - | - | - | - |
| 1777605271 | 17.78° C | 55% | 1017.9 hPa | - | - | - | - |
| 1777604371 | 18.33° C | 55% | 1018 hPa | - | - | - | - |
| 1777603470 | 18.33° C | 55% | 1018 hPa | - | - | - | - |
| 1777602577 | 18.89° C | 55% | 1017.9 hPa | - | - | - | - |
| 1777601676 | 18.33° C | 55% | 1017.8 hPa | - | - | - | - |
| 1777600776 | 18.33° C | 55% | 1018 hPa | - | - | - | - |
| 1777599875 | 18.89° C | 55% | 1018 hPa | - | - | - | - |
| 1777598975 | 19.44° C | 55% | 1018 hPa | - | - | - | - |
| 1777598075 | 19.44° C | 56% | 1017.9 hPa | - | - | - | - |
| 1777597175 | 20° C | 55% | 1017.9 hPa | - | - | - | - |
| 1777596275 | 20° C | 55% | 1018 hPa | - | - | - | - |
| 1777595374 | 20.56° C | 54% | 1018.2 hPa | - | - | - | - |
| 1777594474 | 20.56° C | 54% | 1018.1 hPa | - | - | - | - |
| 1777593574 | 21.11° C | 54% | 1018 hPa | - | - | - | - |
| 1777592674 | 21.11° C | 54% | 1018.1 hPa | - | - | - | - |
* Rain since midnight (hover to see other rain measurements)
** Current wind speed in m/s (hover to see current wind gust speed)